SAS21M EDDH-EKCH

Flight info

Callsign SAS21M
Flight time 0h 34m
Altitude 23000
Route LUGEG3G/33 LUGEG P605 GESKA/N0371F220 Z711 MONAK
Aircraft A320/M-SDE3FGHIRWY/LB1

Departure

Time 2026-05-04 16:55
Airport Hamburg Helmut Schmidt Airport (EDDH)

Arrival

Time 2026-05-04 17:29
Airport Copenhagen Kastrup Airport (EKCH)
Time Latitude Longitude Altitude Speed Heading
2026-05-04 16:20 53.63373 10.00350 47 ft 0 kts 86°
2026-05-04 16:43 53.63372 10.00336 48 ft 3 kts 86°
2026-05-04 16:43 53.63371 10.00302 47 ft 3 kts 86°
2026-05-04 16:44 53.63393 10.00225 47 ft 0 kts 175°
2026-05-04 16:48 53.63376 10.00227 46 ft 4 kts 175°
2026-05-04 16:48 53.63328 10.00233 48 ft 10 kts 176°
2026-05-04 16:49 53.63154 10.00255 45 ft 12 kts 176°
2026-05-04 16:49 53.63016 10.00207 47 ft 12 kts 213°
2026-05-04 16:50 53.62904 10.00085 47 ft 7 kts 212°
2026-05-04 16:50 53.62852 9.99984 48 ft 0 kts 243°
2026-05-04 16:51 53.62851 9.99980 48 ft 2 kts 243°
2026-05-04 16:51 53.62846 9.99966 48 ft 0 kts 243°
2026-05-04 16:52 53.62821 9.99883 46 ft 9 kts 243°
2026-05-04 16:52 53.62814 9.99793 45 ft 8 kts 313°
2026-05-04 16:53 53.62833 9.99774 45 ft 0 kts 334°
2026-05-04 16:53 53.63290 9.99379 47 ft 101 kts 333°
2026-05-04 16:54 53.64077 9.98700 53 ft 151 kts 333°
2026-05-04 16:55 53.67856 9.95469 1702 ft 198 kts 331°
2026-05-04 16:55 53.70671 9.94588 3185 ft 216 kts 357°
2026-05-04 16:56 53.73638 9.95669 4789 ft 237 kts 36°
2026-05-04 16:56 53.76405 10.03956 6745 ft 291 kts 65°
2026-05-04 16:57 53.77229 10.07112 7622 ft 296 kts 65°
2026-05-04 16:57 53.78964 10.13534 9377 ft 305 kts 64°
2026-05-04 16:58 53.81891 10.23863 10898 ft 352 kts 63°
2026-05-04 16:58 53.82973 10.27635 11566 ft 359 kts 63°
2026-05-04 16:59 53.85180 10.35338 13034 ft 368 kts 63°
2026-05-04 17:00 53.89726 10.51348 15695 ft 385 kts 63°
2026-05-04 17:00 53.93257 10.63825 17482 ft 400 kts 60°
2026-05-04 17:01 53.96608 10.71391 18669 ft 405 kts 44°
2026-05-04 17:01 54.00507 10.78441 19806 ft 413 kts 43°
2026-05-04 17:02 54.04487 10.85671 20923 ft 423 kts 43°
2026-05-04 17:02 54.08542 10.93086 21978 ft 432 kts 43°
2026-05-04 17:03 54.10604 10.96878 22491 ft 437 kts 43°
2026-05-04 17:03 54.12646 11.00640 22748 ft 439 kts 43°
2026-05-04 17:03 54.16790 11.08327 22987 ft 439 kts 43°
2026-05-04 17:04 54.20910 11.16014 22986 ft 438 kts 43°
2026-05-04 17:04 54.25026 11.23710 22981 ft 439 kts 43°
2026-05-04 17:05 54.29139 11.31433 22986 ft 439 kts 43°
2026-05-04 17:05 54.33259 11.39181 22983 ft 439 kts 43°
2026-05-04 17:06 54.37371 11.46934 22988 ft 439 kts 43°
2026-05-04 17:06 54.39427 11.50811 22989 ft 440 kts 43°
2026-05-04 17:07 54.43547 11.58589 22989 ft 440 kts 43°
2026-05-04 17:07 54.44910 11.61169 22989 ft 440 kts 43°
2026-05-04 17:07 54.47658 11.66375 23017 ft 440 kts 44°
2026-05-04 17:07 54.49682 11.70219 23007 ft 439 kts 44°
2026-05-04 17:08 54.51737 11.74120 23004 ft 439 kts 44°
2026-05-04 17:08 54.55776 11.81812 22331 ft 428 kts 44°
2026-05-04 17:08 54.57755 11.85602 21930 ft 423 kts 44°
2026-05-04 17:09 54.59708 11.89353 21533 ft 418 kts 44°
2026-05-04 17:09 54.61728 11.92890 21135 ft 410 kts 36°
2026-05-04 17:09 54.63967 11.95827 20751 ft 399 kts 28°
2026-05-04 17:10 54.68541 12.01057 20012 ft 389 kts 29°
2026-05-04 17:10 54.75111 12.08669 19145 ft 367 kts 29°
2026-05-04 17:11 54.77210 12.11112 18903 ft 360 kts 29°
2026-05-04 17:11 54.79267 12.13508 18661 ft 353 kts 29°
2026-05-04 17:11 54.83303 12.18214 17996 ft 346 kts 30°
2026-05-04 17:12 54.85298 12.20539 17608 ft 344 kts 30°
2026-05-04 17:12 54.89246 12.25141 16831 ft 340 kts 30°
2026-05-04 17:13 54.95099 12.31993 15711 ft 336 kts 29°
2026-05-04 17:14 55.00876 12.38773 14666 ft 331 kts 29°
2026-05-04 17:14 55.02762 12.40975 14324 ft 330 kts 29°
2026-05-04 17:14 55.06562 12.45399 13639 ft 326 kts 29°
2026-05-04 17:15 55.08440 12.47592 13260 ft 325 kts 29°
2026-05-04 17:15 55.12166 12.51955 12583 ft 320 kts 30°
2026-05-04 17:16 55.15835 12.56268 11935 ft 315 kts 30°
2026-05-04 17:16 55.21233 12.62618 10971 ft 308 kts 30°
2026-05-04 17:17 55.23014 12.64586 10843 ft 296 kts 22°
2026-05-04 17:17 55.28529 12.67963 10286 ft 274 kts 13°
2026-05-04 17:18 55.30341 12.68997 10020 ft 273 kts 13°
2026-05-04 17:18 55.33930 12.71053 9424 ft 270 kts 13°
2026-05-04 17:19 55.37487 12.73082 8820 ft 267 kts 13°
2026-05-04 17:19 55.41005 12.75093 8239 ft 264 kts 13°
2026-05-04 17:20 55.44484 12.77092 7654 ft 262 kts 13°
2026-05-04 17:20 55.47918 12.79070 7094 ft 259 kts 13°
2026-05-04 17:20 55.49633 12.80058 6813 ft 258 kts 13°
2026-05-04 17:21 55.53015 12.82009 6255 ft 255 kts 13°
2026-05-04 17:21 55.56361 12.83972 5731 ft 250 kts 16°
2026-05-04 17:22 55.57963 12.85072 5559 ft 243 kts 18°
2026-05-04 17:22 55.59521 12.86204 5279 ft 241 kts 18°
2026-05-04 17:23 55.63884 12.90374 4386 ft 242 kts 38°
2026-05-04 17:23 55.65205 12.92160 4077 ft 234 kts 19°
2026-05-04 17:23 55.68299 12.93444 3443 ft 227 kts
2026-05-04 17:24 55.69856 12.93676 3144 ft 220 kts 348°
2026-05-04 17:24 55.72290 12.87846 2195 ft 210 kts 270°
2026-05-04 17:25 55.72125 12.85339 2099 ft 200 kts 261°
2026-05-04 17:25 55.71416 12.80864 2036 ft 182 kts 240°
2026-05-04 17:26 55.69721 12.77932 1890 ft 163 kts 226°
2026-05-04 17:26 55.67220 12.74034 1302 ft 149 kts 226°
2026-05-04 17:27 55.65782 12.71799 906 ft 133 kts 225°
2026-05-04 17:27 55.64406 12.69661 562 ft 132 kts 224°
2026-05-04 17:28 55.63015 12.67497 182 ft 133 kts 225°
2026-05-04 17:29 55.61410 12.64996 25 ft 46 kts 221°
2026-05-04 17:29 55.61187 12.64220 24 ft 18 kts 269°
2026-05-04 17:30 55.61445 12.64299 25 ft 18 kts 33°
2026-05-04 17:31 55.61693 12.64584 25 ft 22 kts 34°
2026-05-04 17:31 55.62016 12.64954 24 ft 11 kts 33°
2026-05-04 17:32 55.62106 12.65059 24 ft 0 kts 34°
2026-05-04 17:34 55.62168 12.65131 24 ft 11 kts 33°
2026-05-04 17:34 55.62229 12.65185 24 ft 9 kts 357°
2026-05-04 17:35 55.62388 12.64775 24 ft 17 kts 303°
2026-05-04 17:35 55.62489 12.64502 24 ft 5 kts 303°
2026-05-04 17:35 55.62516 12.64484 25 ft 5 kts 11°
2026-05-04 17:36 55.62550 12.64502 24 ft 3 kts 16°
2026-05-04 17:36 55.62562 12.64508 24 ft 1 kts 16°
2026-05-04 17:36 55.62564 12.64509 24 ft 0 kts 16°